Regional Weather Roundup
Issued by NWS

Home | Current Version | Previous Version | Graphics & Text | Print | Product List | Glossary On
Versions: 1 2 3 4 5 6 7 8 9 10 11 12 13 14 15 16 17 18 19 20 21 22 23 24 25 26 27 28 29 30 31 32 33 34 35 36 37 38 39 40 41 42 43 44 45 46 47 48 49 50
863
ASUS45 KBOU 091107
RWRCO

WEATHER ROUNDUP FOR COLORADO
NATIONAL WEATHER SERVICE DENVER/BOULDER CO
400 AM MST TUE FEB 09 2016

NOTE: "FAIR" INDICATES FEW OR NO CLOUDS BELOW 12000 FEET WITH NO
SIGNIFICANT WEATHER AND/OR OBSTRUCTIONS TO VISIBILITY.

COZ001>005-013-030-031-091200-
...NORTHWEST COLORADO...

CITY           SKY/WX    TMP DP  RH WIND       PRES   REMARKS
CRAIG          CLOUDY    -5  -9  83 CALM      30.53F
HAYDEN         CLOUDY    16   9  73 E14       30.50S WCI   1
MEEKER         CLOUDY     7   5  91 NE3       30.51S
MOUNT WERNER   NOT AVBL
STEAMBOAT SPGS   N/A      9   7  91 CALM      30.52S VSB 1/2
WALDEN         CLOUDY    10   5  79 SE7       30.47S WCI   0
$$

COZ006>008-011-091200-
...WEST CENTRAL VALLEYS...

CITY           SKY/WX    TMP DP  RH WIND       PRES   REMARKS
GRAND JUNCTION CLOUDY    20  18  92 E6        30.51F WCI  12
MONTROSE       CLOUDY    17  11  77 S8        30.53F WCI   7
EAGLE          CLOUDY    10   9  92 CALM      30.58R
RIFLE          CLOUDY    13   9  84 E6        30.53F WCI   4
DELTA          CLOUDY    22  18  86 CALM      30.53F
NUCLA          CLOUDY    23  16  74 SE3       30.53R
$$

COZ017>023-064>068-091200-
...SOUTHWEST COLORADO...

CITY           SKY/WX    TMP DP  RH WIND       PRES   REMARKS
DURANGO        CLOUDY     9   7  92 NE5       30.40S WCI   1
CORTEZ         CLOUDY    19  15  84 E6        30.43S WCI  11
PAGOSA SPRINGS CLOUDY    17  13  84 CALM      30.40F
TELLURIDE      CLOUDY    24   6  45 SE5       30.50R WCI  18
WOLF CREEK PAS CLOUDY    27  -9  20 CALM      30.51S
$$

COZ009-010-012-014-032>034-037-058>063-091200-
...CENTRAL COLORADO...

CITY           SKY/WX    TMP DP  RH WIND       PRES   REMARKS
ASPEN          CLOUDY    16   9  74 SW8       30.50F WCI   5
BUENA VISTA    CLOUDY    29  13  51 NW23G31   30.40S WCI  15
COPPER MTN     NOT AVBL
BERTHOUD PASS  FAIR      10   0  61 NW30      30.42F WCI -12
COTTONWOOD PAS CLOUDY    32   1  27 W12G24    30.43R WCI  23
GUNNISON       CLOUDY    -4 -18  50 CALM      30.57S
KREMMLING      FLURRIES  -2  -8  78 CALM      30.55S
LEADVILLE      CLOUDY    11   9  92 NE8       30.46S WCI  -1
MONARCH PASS   CLOUDY    19   9  63 MISG      30.56S
SALIDA         NOT AVBL
SUNLIGHT       CLOUDY    25  16  68 N7          N/A  WCI  17
WILKERSON PASS CLOUDY    27  -6  24 NW9G22    30.44S WCI  17
$$

COZ069>075-091200-
...SAN LUIS VALLEY/SANGRE DE CRISTO MOUNTAINS...

CITY           SKY/WX    TMP DP  RH WIND       PRES   REMARKS
ALAMOSA        CLOUDY    17  12  80 W3        30.41S
LA VETA PASS   CLOUDY    23  12  63 MISG      30.40R
SAGUACHE       CLOUDY    28  14  54 NW21      30.42F WCI  15
$$

COZ035-036-038>040-091200-
...NORTHERN COLORADO FRONT RANGE...

CITY           SKY/WX    TMP DP  RH WIND       PRES   REMARKS
DENVER INTL AP CLOUDY    28  18  66 S9        30.29R WCI  19
DMNS CITY PARK   N/A     28  19  69 SE8       30.30S WCI  20
AURORA         PTCLDY    31  22  71 S10       30.30S WCI  22
FRONT RANGE AP   N/A     21  18  86 S7        30.30S WCI  13
ERIE MUNI ARPT CLOUDY    25  20  80 CALM      30.29R
BOULDER MUN AP CLOUDY    32  21  64 SW3       30.28S
CENTENNIAL     CLOUDY    27  17  66 S6        30.29F WCI  20
BROOMFIELD     CLOUDY    37  19  48 CALM      30.29S
FORT COLLINS   CLEAR     19  14  79 W7        30.29S WCI  10
LONGMONT       CLEAR     21  15  78 CALM      30.31R
$$

COZ041-046-047-076>085-087-088-091200-
...PIKES PEAK/PALMER DIVIDE AND SOUTHERN FOOTHILLS...

CITY           SKY/WX    TMP DP  RH WIND       PRES   REMARKS
COLO. SPRINGS  CLOUDY    22  14  71 N9        30.33F WCI  12
A. F. ACADEMY  CLOUDY    17  11  79 N8        30.32F WCI   6
SCHRIEVER AFB  NOT AVBL
ELLICOTT       NOT AVBL
FALCON         NOT AVBL
FORT CARSON    CLOUDY    25  18  73 N14       30.31F WCI  14
LIMON          CLOUDY    23  16  74 W13       30.29F WCI  11
MONUMENT HILL  CLOUDY    28  18  64 SW14      30.33S WCI  17
TRINIDAD       CLOUDY    22  16  78 W7        30.35R WCI  13
$$

COZ042>045-048>051-090-091-091200-
...NORTHEAST COLORADO...

CITY           SKY/WX    TMP DP  RH WIND       PRES   REMARKS
GREELEY ARPT   CLOUDY    16  12  86 CALM      30.30F
AKRON          CLEAR     27  21  78 W20       30.24S WCI  13
BURLINGTON     CLEAR     30  20  66 NW13      30.23S WCI  20
WRAY           CLEAR     37  27  67 W15       30.20F
STERLING       CLEAR     36  27  69 NW14      30.23F
HOLYOKE        CLEAR     41  28  60 NW15G22   30.20R
FORT MORGAN    CLEAR     20  17  89 W8        30.29S WCI  10
$$

COZ086-089-092>099-091200-
...SOUTHEAST COLORADO...

CITY           SKY/WX    TMP DP  RH WIND       PRES   REMARKS
PUEBLO         CLOUDY    24  19  81 W5        30.34S WCI  18
LA JUNTA       CLEAR     28  23  81 W15       30.31F WCI  16
LAMAR          CLEAR     29  24  82 W12       30.28F WCI  19
SPRINGFIELD      N/A     30  23  75 W12       30.29F WCI  20
$$




USA.gov is the U.S. government's official web portal to all federal, state and local government web resources and services.